Hourly Data Report for September 26, 2017

All times are specified in Local Standard Time (LST). Add 1 hour to adjust for Daylight Saving Time where and when it is observed.

HALL BEACH A
NUNAVUT

68°46'33.000" N
81°14'33.000" W
9.10 m
2402354
71293
YUX

Download Data

Hourly Data (September 2017)
Hourly Data Report for September 26, 2017
Temp Definition
°C
Dew Point Temp Definition
°C
Rel Hum Definition
%
Wind Dir Definition
10's deg

Wind Spd Definition
km/h
Visibility Definition
km
Stn Press Definition
kPa
Hmdx Definition


Wind Chill Definition


Weather Definition


TIME
00:00 Legend Double Dagger -2.5 -6.2 76 33 26 16.1 101.35   -9 LegendNANA
01:00 Legend Double Dagger -2.8 -5.7 80 34 26 16.1 101.37   -10 LegendNANA
02:00 Legend Double Dagger -2.7 -5.9 79 33 26 16.1 101.37   -10 LegendNANA
03:00 Legend Double Dagger -2.7 -5.8 79 32 22 16.1 101.38   -9 LegendNANA
04:00 Legend Double Dagger -2.8 -5.6 81 32 24 16.1 101.41   -9 LegendNANA
05:00 Legend Double Dagger -2.8 -5.7 80 35 21 16.1 101.44   -9 LegendNANA
06:00 Legend Double Dagger -2.8 -5.8 80 34 21 16.1 101.48   -9 LegendNANA
07:00 Legend Double Dagger -3.1 -5.8 82 31 21 16.1 101.47   -9 LegendNANA
08:00 Legend Double Dagger -3.1 -6.0 80 35 17 16.1 101.47   -9 LegendNANA
09:00 Legend Double Dagger -3.1 -5.9 81 33 22 16.1 101.46   -9 LegendNANA
10:00 Legend Double Dagger -3.2 -6.0 81 34 21 16.1 101.49   -9 LegendNANA
11:00 Legend Double Dagger -3.1 -5.7 82 34 22 16.1 101.48   -9 LegendNANA
12:00 Legend Double Dagger -3.0 -5.7 82 31 17 16.1 101.48   -9 LegendNANA
13:00 Legend Double Dagger -2.9 -5.2 84 32 15 16.1 101.48   -8 LegendNANA
14:00 Legend Double Dagger -2.9 -5.5 82 32 13 16.1 101.49   -8 LegendNANA
15:00 Legend Double Dagger -2.8 -5.5 82 31 13 16.1 101.48   -7 LegendNANA
16:00 Legend Double Dagger -2.8 -5.6 81 34 17 16.1 101.49   -8 LegendNANA
17:00 Legend Double Dagger -2.8 -5.5 82 33 17 16.1 101.50   -8 LegendNANA
18:00 Legend Double Dagger -3.1 -5.9 81 33 9 16.1 101.48   -7 LegendNANA
19:00 Legend Double Dagger -2.9 -5.7 81 30 13 16.1 101.50   -8 LegendNANA
20:00 Legend Double Dagger -3.1 -5.9 81 31 9 16.1 101.47   -7 LegendNANA
21:00 Legend Double Dagger -3.1 -5.9 81 33 11 16.1 101.46   -7 LegendNANA
22:00 Legend Double Dagger -3.3 -6.1 81 33 5 16.1 101.42   -5 LegendNANA
23:00 Legend Double Dagger -3.4 -6.1 82 26 5 16.1 101.42   -5 LegendNANA

Notes on Data Quality.

Legend

  • E = Estimated
  • M = Missing
  • NA = Not Available
  • ‡ = Partner data that is not subject to review by the National Climate Archives
Date modified: